Voltar ao catálogo

THOR ABLESTAR DEB

AtivoLEO
NORAD 516·DEBRIS·🇺🇸 United States

Lançado Jun 29, 1961 de Cape Canaveral Space Force Station

Loading…

Próximas Passagens (próximas 24 horas)

TLE

AtualizadoSource: Space-Track

Época: Sep 14, 2026, 11:22 UTC

1 00516U 61015FT  26257.47386724  .00000083  00000-0  12544-3 0  9998
2 00516  65.9933 281.1264 0071544  93.4552 267.4708 13.92843550300829

Acompanhe THOR ABLESTAR DEB em tempo real com AllMySat

Download on the App Store